Location: Melbourne
(37.8120°S, 144.9677°E)
Time: 16:48:41
(UTC+10:00)

ISS - Visible Passes

Search period start: 28 May 2017 00:00
Search period end: 07 June 2017 00:00
Orbit: 402 x 408 km, 51.6° (Epoch: 28 May)

Date Brightness Start Highest point End Pass type
(mag) Time Alt. Az. Time Alt. Az. Time Alt. Az.
29 May -0.7 06:18:02 10° N 06:20:25 19° NE 06:22:50 10° E visible
31 May -2.9 06:09:24 10° NNW 06:12:36 49° NE 06:15:50 10° ESE visible
01 Jun -1.6 05:19:53 22° NNE 05:20:39 24° NE 05:23:24 10° ESE visible
01 Jun -3.0 06:54:01 10° W 06:57:03 32° SSW 07:00:06 10° SSE visible
02 Jun -3.8 06:03:50 37° W 06:04:53 60° SW 06:08:11 10° SE visible
03 Jun -1.6 05:14:40 23° ESE 05:14:40 23° ESE 05:16:06 10° SE visible
03 Jun -2.1 06:47:23 11° WSW 06:49:35 18° SSW 06:51:57 10° SSE visible
04 Jun -2.4 05:57:57 25° S 05:57:57 25° S 06:00:11 10° SSE visible
05 Jun -1.5 06:41:01 10° SW 06:42:12 12° SSW 06:43:27 10° S visible
06 Jun -1.3 05:51:15 13° S 05:51:15 13° S 05:51:54 10° SSE visible
